Time,TemperatureF,DewpointF,PressureIn,WindDirection,WindDirectionDegrees,WindSpeedMPH,WindSpeedGustMPH,Humidity,HourlyPrecipIn,Conditions,Clouds,dailyrainin,SoftwareType,DateUTC
2013-03-07 00:03:00,43.5,18.9,30.21,SE,137,0.0,0.0,37,0.00,,,0.00,Wunderground v.1.15,2013-03-07 06:03:00,
2013-03-07 00:08:00,43.7,19.1,30.21,SE,141,0.0,1.0,37,0.00,,,0.00,Wunderground v.1.15,2013-03-07 06:08:00,
2013-03-07 00:14:00,43.9,19.3,30.20,SE,142,1.0,2.0,37,0.00,,,0.00,Wunderground v.1.15,2013-03-07 06:14:00,
2013-03-07 00:19:00,44.1,19.5,30.20,SE,141,2.0,2.0,37,0.00,,,0.00,Wunderground v.1.15,2013-03-07 06:19:00,
2013-03-07 00:24:00,44.1,19.5,30.20,SE,141,2.0,2.0,37,0.00,,,0.00,Wunderground v.1.15,2013-03-07 06:24:00,
2013-03-07 00:29:00,43.8,19.2,30.20,SE,141,1.0,2.0,37,0.00,,,0.00,Wunderground v.1.15,2013-03-07 06:29:00,
2013-03-07 00:39:00,43.1,19.2,30.19,SE,141,1.0,1.0,38,0.00,,,0.00,Wunderground v.1.15,2013-03-07 06:39:00,
2013-03-07 00:49:00,41.9,19.3,30.19,SE,141,1.0,1.0,40,0.00,,,0.00,Wunderground v.1.15,2013-03-07 06:49:00,
2013-03-07 00:54:00,41.7,19.7,30.19,SE,142,1.0,1.0,41,0.00,,,0.00,Wunderground v.1.15,2013-03-07 06:54:00,
2013-03-07 00:59:00,41.7,19.7,30.19,SE,142,1.0,1.0,41,0.00,,,0.00,Wunderground v.1.15,2013-03-07 06:59:00,
2013-03-07 01:04:00,41.8,20.4,30.19,SE,142,1.0,1.0,42,0.00,,,0.00,Wunderground v.1.15,2013-03-07 07:04:00,
2013-03-07 01:09:00,41.6,20.2,30.19,SE,141,1.0,1.0,42,0.00,,,0.00,Wunderground v.1.15,2013-03-07 07:09:00,
2013-03-07 01:14:00,41.7,20.3,30.19,SE,142,1.0,2.0,42,0.00,,,0.00,Wunderground v.1.15,2013-03-07 07:14:00,
2013-03-07 01:24:00,41.8,20.4,30.19,SSE,147,1.0,1.0,42,0.00,,,0.00,Wunderground v.1.15,2013-03-07 07:24:00,
2013-03-07 01:29:00,41.8,20.4,30.18,SSE,148,1.0,2.0,42,0.00,,,0.00,Wunderground v.1.15,2013-03-07 07:29:00,
2013-03-07 01:33:00,41.7,20.3,30.18,SSE,150,2.0,3.0,42,0.00,,,0.00,Wunderground v.1.15,2013-03-07 07:33:00,
2013-03-07 01:38:00,41.5,20.6,30.18,SE,144,3.0,3.0,43,0.00,,,0.00,Wunderground v.1.15,2013-03-07 07:38:00,
2013-03-07 01:43:00,41.2,20.9,30.18,South,179,3.0,3.0,44,0.00,,,0.00,Wunderground v.1.15,2013-03-07 07:43:00,
2013-03-07 01:48:00,41.0,21.3,30.18,South,177,2.0,3.0,45,0.00,,,0.00,Wunderground v.1.15,2013-03-07 07:48:00,
2013-03-07 01:53:00,40.9,21.2,30.18,South,182,2.0,2.0,45,0.00,,,0.00,Wunderground v.1.15,2013-03-07 07:53:00,
2013-03-07 01:59:00,40.9,21.2,30.18,South,182,2.0,2.0,45,0.00,,,0.00,Wunderground v.1.15,2013-03-07 07:59:00,
2013-03-07 02:04:00,41.1,21.3,30.18,South,177,2.0,4.0,45,0.00,,,0.00,Wunderground v.1.15,2013-03-07 08:04:00,
2013-03-07 02:09:00,41.1,21.3,30.18,SSE,165,3.0,4.0,45,0.00,,,0.00,Wunderground v.1.15,2013-03-07 08:09:00,
2013-03-07 02:14:00,41.1,21.3,30.18,South,187,3.0,3.0,45,0.00,,,0.00,Wunderground v.1.15,2013-03-07 08:14:00,
2013-03-07 02:24:00,40.9,21.2,30.18,South,183,1.0,2.0,45,0.00,,,0.00,Wunderground v.1.15,2013-03-07 08:24:00,
2013-03-07 02:29:00,41.0,21.3,30.18,South,183,1.0,2.0,45,0.00,,,0.00,Wunderground v.1.15,2013-03-07 08:29:00,
2013-03-07 02:34:00,41.0,21.3,30.18,SSW,208,1.0,1.0,45,0.00,,,0.00,Wunderground v.1.15,2013-03-07 08:34:00,
2013-03-07 02:39:00,41.2,20.9,30.18,SSW,208,1.0,2.0,44,0.00,,,0.00,Wunderground v.1.15,2013-03-07 08:39:00,
2013-03-07 02:44:00,41.4,21.1,30.17,SSW,201,2.0,3.0,44,0.00,,,0.00,Wunderground v.1.15,2013-03-07 08:44:00,
2013-03-07 02:54:00,41.7,21.4,30.17,South,175,4.0,5.0,44,0.00,,,0.00,Wunderground v.1.15,2013-03-07 08:54:00,
2013-03-07 02:59:00,41.4,21.6,30.17,South,182,5.0,5.0,45,0.00,,,0.00,Wunderground v.1.15,2013-03-07 08:59:00,
2013-03-07 03:04:00,41.0,21.3,30.17,SSE,164,4.0,4.0,45,0.00,,,0.00,Wunderground v.1.15,2013-03-07 09:04:00,
2013-03-07 03:09:00,40.7,21.5,30.16,SSE,152,3.0,4.0,46,0.00,,,0.00,Wunderground v.1.15,2013-03-07 09:09:00,
2013-03-07 03:14:00,40.5,21.8,30.16,South,174,2.0,3.0,47,0.00,,,0.00,Wunderground v.1.15,2013-03-07 09:14:00,
2013-03-07 03:19:00,40.5,21.8,30.16,South,183,3.0,3.0,47,0.00,,,0.00,Wunderground v.1.15,2013-03-07 09:19:00,
2013-03-07 03:28:00,40.8,21.6,30.15,SSE,148,4.0,5.0,46,0.00,,,0.00,Wunderground v.1.15,2013-03-07 09:28:00,
2013-03-07 03:33:00,41.1,21.9,30.15,SSE,151,5.0,5.0,46,0.00,,,0.00,Wunderground v.1.15,2013-03-07 09:33:00,
2013-03-07 03:38:00,41.3,21.5,30.15,SE,141,5.0,5.0,45,0.00,,,0.00,Wunderground v.1.15,2013-03-07 09:38:00,
2013-03-07 03:44:00,41.3,21.5,30.16,SSE,154,5.0,5.0,45,0.00,,,0.00,Wunderground v.1.15,2013-03-07 09:44:00,
2013-03-07 03:53:00,41.3,21.5,30.15,SSE,147,4.0,4.0,45,0.00,,,0.00,Wunderground v.1.15,2013-03-07 09:53:00,
2013-03-07 03:59:00,41.2,21.4,30.15,SE,142,4.0,4.0,45,0.00,,,0.00,Wunderground v.1.15,2013-03-07 09:59:00,
2013-03-07 04:04:00,41.1,21.9,30.15,SE,141,4.0,4.0,46,0.00,,,0.00,Wunderground v.1.15,2013-03-07 10:04:00,
2013-03-07 04:09:00,41.1,21.3,30.15,SE,137,4.0,4.0,45,0.00,,,0.00,Wunderground v.1.15,2013-03-07 10:09:00,
2013-03-07 04:14:00,40.9,21.2,30.15,SE,135,4.0,4.0,45,0.00,,,0.00,Wunderground v.1.15,2013-03-07 10:14:00,
2013-03-07 04:19:00,40.7,21.5,30.15,SE,134,3.0,4.0,46,0.00,,,0.00,Wunderground v.1.15,2013-03-07 10:19:00,
2013-03-07 04:24:00,40.9,21.7,30.15,SE,132,4.0,4.0,46,0.00,,,0.00,Wunderground v.1.15,2013-03-07 10:24:00,
2013-03-07 04:34:00,41.5,22.2,30.16,SE,135,4.0,4.0,46,0.00,,,0.00,Wunderground v.1.15,2013-03-07 10:34:00,
2013-03-07 04:39:00,41.7,22.4,30.15,SE,139,4.0,4.0,46,0.00,,,0.00,Wunderground v.1.15,2013-03-07 10:39:00,
2013-03-07 04:44:00,41.7,22.4,30.16,SE,137,4.0,4.0,46,0.00,,,0.00,Wunderground v.1.15,2013-03-07 10:44:00,
2013-03-07 04:49:00,41.6,22.3,30.16,SE,143,4.0,4.0,46,0.00,,,0.00,Wunderground v.1.15,2013-03-07 10:49:00,
2013-03-07 04:54:00,41.2,22.5,30.16,SE,133,3.0,3.0,47,0.00,,,0.00,Wunderground v.1.15,2013-03-07 10:54:00,
2013-03-07 04:59:00,40.9,22.7,30.16,SE,129,2.0,3.0,48,0.00,,,0.00,Wunderground v.1.15,2013-03-07 10:59:00,
2013-03-07 05:09:00,40.7,23.0,30.17,SE,125,2.0,3.0,49,0.00,,,0.00,Wunderground v.1.15,2013-03-07 11:09:00,
2013-03-07 05:14:00,40.5,23.3,30.17,SE,126,1.0,2.0,50,0.00,,,0.00,Wunderground v.1.15,2013-03-07 11:14:00,
2013-03-07 05:19:00,40.9,24.1,30.17,SE,126,2.0,3.0,51,0.00,,,0.00,Wunderground v.1.15,2013-03-07 11:19:00,
2013-03-07 05:24:00,41.2,24.4,30.17,ESE,122,3.0,4.0,51,0.00,,,0.00,Wunderground v.1.15,2013-03-07 11:24:00,
2013-03-07 05:29:00,41.0,24.2,30.17,ESE,123,4.0,4.0,51,0.00,,,0.00,Wunderground v.1.15,2013-03-07 11:29:00,
2013-03-07 05:39:00,40.5,24.2,30.17,SE,129,3.0,4.0,52,0.00,,,0.00,Wunderground v.1.15,2013-03-07 11:39:00,
2013-03-07 05:44:00,39.9,24.1,30.18,SE,129,2.0,2.0,53,0.00,,,0.00,Wunderground v.1.15,2013-03-07 11:44:00,
2013-03-07 05:53:00,40.0,25.1,30.18,SE,132,1.0,2.0,55,0.00,,,0.00,Wunderground v.1.15,2013-03-07 11:53:00,
2013-03-07 05:58:00,40.6,25.7,30.17,SE,128,2.0,4.0,55,0.00,,,0.00,Wunderground v.1.15,2013-03-07 11:58:00,
2013-03-07 06:03:00,40.9,26.0,30.18,SE,130,4.0,4.0,55,0.00,,,0.00,Wunderground v.1.15,2013-03-07 12:03:00,
2013-03-07 06:09:00,40.9,26.0,30.18,SE,133,4.0,4.0,55,0.00,,,0.00,Wunderground v.1.15,2013-03-07 12:09:00,
2013-03-07 06:14:00,41.0,26.1,30.18,SE,133,4.0,4.0,55,0.00,,,0.00,Wunderground v.1.15,2013-03-07 12:14:00,
2013-03-07 06:23:00,41.1,26.6,30.18,SE,133,4.0,4.0,56,0.00,,,0.00,Wunderground v.1.15,2013-03-07 12:23:00,
2013-03-07 06:28:00,41.2,27.1,30.18,SE,130,3.0,4.0,57,0.00,,,0.00,Wunderground v.1.15,2013-03-07 12:28:00,
2013-03-07 06:33:00,41.2,27.1,30.18,SE,130,3.0,3.0,57,0.00,,,0.00,Wunderground v.1.15,2013-03-07 12:33:00,
2013-03-07 06:38:00,41.2,27.5,30.19,SE,127,3.0,3.0,58,0.00,,,0.00,Wunderground v.1.15,2013-03-07 12:38:00,
2013-03-07 06:44:00,41.4,28.1,30.19,ESE,123,3.0,4.0,59,0.00,,,0.00,Wunderground v.1.15,2013-03-07 12:44:00,
2013-03-07 06:54:00,42.0,28.3,30.19,SE,132,4.0,4.0,58,0.00,,,0.00,Wunderground v.1.15,2013-03-07 12:54:00,
2013-03-07 07:03:00,42.5,28.8,30.20,SE,130,4.0,4.0,58,0.00,,,0.00,Wunderground v.1.15,2013-03-07 13:03:00,
2013-03-07 07:08:00,42.7,28.9,30.20,SE,139,4.0,4.0,58,0.00,,,0.00,Wunderground v.1.15,2013-03-07 13:08:00,
2013-03-07 07:14:00,42.9,29.1,30.21,SSE,147,4.0,4.0,58,0.00,,,0.00,Wunderground v.1.15,2013-03-07 13:14:00,
2013-03-07 07:19:00,43.0,29.2,30.21,SE,142,5.0,5.0,58,0.00,,,0.00,Wunderground v.1.15,2013-03-07 13:19:00,
2013-03-07 07:24:00,42.9,29.1,30.21,SE,142,4.0,5.0,58,0.00,,,0.00,Wunderground v.1.15,2013-03-07 13:24:00,
2013-03-07 07:29:00,42.8,29.0,30.21,SE,137,4.0,5.0,58,0.00,,,0.00,Wunderground v.1.15,2013-03-07 13:29:00,
2013-03-07 07:34:00,43.0,29.6,30.22,SE,139,4.0,4.0,59,0.00,,,0.00,Wunderground v.1.15,2013-03-07 13:34:00,
2013-03-07 07:39:00,43.2,29.8,30.22,SE,139,4.0,4.0,59,0.00,,,0.00,Wunderground v.1.15,2013-03-07 13:39:00,
2013-03-07 07:54:00,44.2,31.2,30.23,SSE,148,6.0,7.0,60,0.00,,,0.00,Wunderground v.1.15,2013-03-07 13:54:00,
2013-03-07 08:04:00,44.8,31.8,30.23,SE,144,7.0,8.0,60,0.00,,,0.00,Wunderground v.1.15,2013-03-07 14:04:00,
2013-03-07 08:09:00,45.2,32.5,30.23,SSE,147,7.0,9.0,61,0.00,,,0.00,Wunderground v.1.15,2013-03-07 14:09:00,
2013-03-07 08:14:00,45.6,32.9,30.24,South,172,8.0,11.0,61,0.00,,,0.00,Wunderground v.1.15,2013-03-07 14:14:00,
2013-03-07 08:18:00,45.9,33.2,30.24,SE,140,9.0,11.0,61,0.00,,,0.00,Wunderground v.1.15,2013-03-07 14:18:00,
2013-03-07 08:23:00,46.3,34.0,30.24,SE,144,9.0,9.0,62,0.00,,,0.00,Wunderground v.1.15,2013-03-07 14:23:00,
2013-03-07 08:28:00,46.7,34.8,30.24,SSE,154,8.0,9.0,63,0.00,,,0.00,Wunderground v.1.15,2013-03-07 14:28:00,
2013-03-07 08:33:00,47.1,35.5,30.25,South,170,9.0,9.0,64,0.00,,,0.00,Wunderground v.1.15,2013-03-07 14:33:00,
2013-03-07 08:38:00,47.6,36.8,30.24,SE,140,9.0,9.0,66,0.00,,,0.00,Wunderground v.1.15,2013-03-07 14:38:00,
2013-03-07 08:43:00,48.0,38.3,30.24,SE,133,9.0,9.0,69,0.00,,,0.00,Wunderground v.1.15,2013-03-07 14:43:00,
2013-03-07 08:48:00,48.5,38.8,30.25,South,176,9.0,9.0,69,0.00,,,0.00,Wunderground v.1.15,2013-03-07 14:48:00,
2013-03-07 08:54:00,48.9,39.9,30.25,SSE,153,10.0,10.0,71,0.00,,,0.00,Wunderground v.1.15,2013-03-07 14:54:00,
2013-03-07 09:03:00,49.6,40.6,30.25,South,180,10.0,10.0,71,0.00,,,0.00,Wunderground v.1.15,2013-03-07 15:03:00,
2013-03-07 09:13:00,50.6,41.5,30.25,SSE,157,10.0,12.0,71,0.00,,,0.00,Wunderground v.1.15,2013-03-07 15:13:00,
2013-03-07 09:18:00,51.0,42.3,30.25,SSE,157,11.0,12.0,72,0.00,,,0.00,Wunderground v.1.15,2013-03-07 15:18:00,
2013-03-07 09:23:00,51.3,42.2,30.25,SSE,168,10.0,10.0,71,0.00,,,0.00,Wunderground v.1.15,2013-03-07 15:23:00,
2013-03-07 09:28:00,52.0,43.3,30.25,South,190,9.0,10.0,72,0.00,,,0.00,Wunderground v.1.15,2013-03-07 15:28:00,
2013-03-07 09:33:00,52.6,43.5,30.25,SSE,160,8.0,8.0,71,0.00,,,0.00,Wunderground v.1.15,2013-03-07 15:33:00,
2013-03-07 09:38:00,52.9,43.4,30.24,SE,142,8.0,9.0,70,0.00,,,0.00,Wunderground v.1.15,2013-03-07 15:38:00,
2013-03-07 09:43:00,52.8,43.7,30.24,SE,132,8.0,10.0,71,0.00,,,0.00,Wunderground v.1.15,2013-03-07 15:43:00,
2013-03-07 09:48:00,53.4,46.4,30.24,South,190,10.0,12.0,77,0.00,,,0.00,Wunderground v.1.15,2013-03-07 15:48:00,
2013-03-07 09:54:00,54.2,46.4,30.24,SSE,147,12.0,12.0,75,0.00,,,0.00,Wunderground v.1.15,2013-03-07 15:54:00,
2013-03-07 10:04:00,54.2,46.4,30.24,SSE,149,17.0,17.0,75,0.00,,,0.00,Wunderground v.1.15,2013-03-07 16:04:00,
2013-03-07 10:09:00,54.5,46.7,30.24,South,169,15.0,17.0,75,0.00,,,0.00,Wunderground v.1.15,2013-03-07 16:09:00,
2013-03-07 10:13:00,54.5,46.7,30.23,SSE,151,15.0,16.0,75,0.00,,,0.00,Wunderground v.1.15,2013-03-07 16:13:00,
2013-03-07 10:19:00,54.7,46.9,30.23,SE,132,16.0,17.0,75,0.00,,,0.00,Wunderground v.1.15,2013-03-07 16:19:00,
2013-03-07 10:24:00,55.1,47.7,30.23,SE,132,16.0,16.0,76,0.00,,,0.00,Wunderground v.1.15,2013-03-07 16:24:00,
2013-03-07 10:33:00,55.4,46.9,30.23,SE,145,18.0,18.0,73,0.00,,,0.00,Wunderground v.1.15,2013-03-07 16:33:00,
2013-03-07 10:39:00,55.8,46.9,30.22,SE,137,17.0,18.0,72,0.00,,,0.00,Wunderground v.1.15,2013-03-07 16:39:00,
2013-03-07 10:44:00,56.7,47.4,30.22,South,180,17.0,18.0,71,0.00,,,0.00,Wunderground v.1.15,2013-03-07 16:44:00,
2013-03-07 10:49:00,56.8,47.5,30.22,SE,143,17.0,18.0,71,0.00,,,0.00,Wunderground v.1.15,2013-03-07 16:49:00,
2013-03-07 10:54:00,57.4,47.3,30.22,SE,136,16.0,17.0,69,0.00,,,0.00,Wunderground v.1.15,2013-03-07 16:54:00,
2013-03-07 11:04:00,58.0,46.7,30.21,SE,141,16.0,21.0,66,0.00,,,0.00,Wunderground v.1.15,2013-03-07 17:04:00,
2013-03-07 11:09:00,58.0,47.1,30.21,SE,144,16.0,21.0,67,0.00,,,0.00,Wunderground v.1.15,2013-03-07 17:09:00,
2013-03-07 11:14:00,58.3,46.6,30.21,SE,132,16.0,16.0,65,0.00,,,0.00,Wunderground v.1.15,2013-03-07 17:14:00,
2013-03-07 11:19:00,58.6,46.9,30.21,SE,143,15.0,16.0,65,0.00,,,0.00,Wunderground v.1.15,2013-03-07 17:19:00,
2013-03-07 11:24:00,59.1,46.9,30.21,SE,127,14.0,14.0,64,0.00,,,0.00,Wunderground v.1.15,2013-03-07 17:24:00,
2013-03-07 11:29:00,59.0,45.6,30.21,SSE,158,14.0,18.0,61,0.00,,,0.00,Wunderground v.1.15,2013-03-07 17:29:00,
2013-03-07 11:39:00,59.7,46.7,30.20,SSE,147,15.0,18.0,62,0.00,,,0.00,Wunderground v.1.15,2013-03-07 17:39:00,
2013-03-07 11:44:00,60.1,46.6,30.20,SE,132,15.0,15.0,61,0.00,,,0.00,Wunderground v.1.15,2013-03-07 17:44:00,
2013-03-07 11:49:00,60.4,46.0,30.20,ESE,104,13.0,15.0,59,0.00,,,0.00,Wunderground v.1.15,2013-03-07 17:49:00,
2013-03-07 11:54:00,60.7,45.8,30.20,SE,146,13.0,13.0,58,0.00,,,0.00,Wunderground v.1.15,2013-03-07 17:54:00,
2013-03-07 12:04:00,61.5,45.7,30.20,SE,132,13.0,13.0,56,0.00,,,0.00,Wunderground v.1.15,2013-03-07 18:04:00,
2013-03-07 12:14:00,62.2,45.3,30.19,South,172,10.0,10.0,54,0.00,,,0.00,Wunderground v.1.15,2013-03-07 18:14:00,
2013-03-07 12:19:00,62.6,45.7,30.18,ESE,109,10.0,10.0,54,0.00,,,0.00,Wunderground v.1.15,2013-03-07 18:19:00,
2013-03-07 12:24:00,62.6,44.2,30.18,SE,133,12.0,12.0,51,0.00,,,0.00,Wunderground v.1.15,2013-03-07 18:24:00,
2013-03-07 12:29:00,62.6,45.7,30.18,SE,134,12.0,13.0,54,0.00,,,0.00,Wunderground v.1.15,2013-03-07 18:29:00,
2013-03-07 12:34:00,62.8,44.9,30.17,SSE,163,12.0,12.0,52,0.00,,,0.00,Wunderground v.1.15,2013-03-07 18:34:00,
2013-03-07 12:44:00,63.2,43.2,30.17,ESE,104,13.0,13.0,48,0.00,,,0.00,Wunderground v.1.15,2013-03-07 18:44:00,
2013-03-07 12:49:00,63.5,42.9,30.17,East,99,13.0,13.0,47,0.00,,,0.00,Wunderground v.1.15,2013-03-07 18:49:00,
2013-03-07 12:54:00,63.5,43.4,30.17,SSE,153,13.0,15.0,48,0.00,,,0.00,Wunderground v.1.15,2013-03-07 18:54:00,
2013-03-07 13:04:00,63.7,44.2,30.16,SE,141,12.0,14.0,49,0.00,,,0.00,Wunderground v.1.15,2013-03-07 19:04:00,
2013-03-07 13:09:00,64.1,44.0,30.16,SE,125,11.0,14.0,48,0.00,,,0.00,Wunderground v.1.15,2013-03-07 19:09:00,
2013-03-07 13:19:00,64.5,43.3,30.15,South,181,13.0,13.0,46,0.00,,,0.00,Wunderground v.1.15,2013-03-07 19:19:00,
2013-03-07 13:24:00,65.0,44.3,30.15,SSE,153,14.0,14.0,47,0.00,,,0.00,Wunderground v.1.15,2013-03-07 19:24:00,
2013-03-07 13:29:00,65.2,43.9,30.14,SE,144,13.0,14.0,46,0.00,,,0.00,Wunderground v.1.15,2013-03-07 19:29:00,
2013-03-07 13:34:00,65.2,43.3,30.14,ESE,123,12.0,12.0,45,0.00,,,0.00,Wunderground v.1.15,2013-03-07 19:34:00,
2013-03-07 13:39:00,65.1,43.8,30.14,SE,140,11.0,12.0,46,0.00,,,0.00,Wunderground v.1.15,2013-03-07 19:39:00,
2013-03-07 13:49:00,65.1,44.4,30.14,ESE,108,12.0,12.0,47,0.00,,,0.00,Wunderground v.1.15,2013-03-07 19:49:00,
2013-03-07 13:54:00,65.9,44.5,30.13,ESE,119,11.0,11.0,46,0.00,,,0.00,Wunderground v.1.15,2013-03-07 19:54:00,
2013-03-07 14:04:00,66.5,45.6,30.12,SE,130,11.0,14.0,47,0.00,,,0.00,Wunderground v.1.15,2013-03-07 20:04:00,
2013-03-07 14:09:00,66.3,44.9,30.12,ESE,108,13.0,20.0,46,0.00,,,0.00,Wunderground v.1.15,2013-03-07 20:09:00,
2013-03-07 14:14:00,66.6,44.6,30.12,ESE,113,14.0,14.0,45,0.00,,,0.00,Wunderground v.1.15,2013-03-07 20:14:00,
2013-03-07 14:19:00,67.1,44.4,30.12,ESE,123,15.0,15.0,44,0.00,,,0.00,Wunderground v.1.15,2013-03-07 20:19:00,
2013-03-07 14:24:00,67.0,44.4,30.12,SSE,147,14.0,14.0,44,0.00,,,0.00,Wunderground v.1.15,2013-03-07 20:24:00,
2013-03-07 14:29:00,67.3,45.2,30.12,East,101,13.0,14.0,45,0.00,,,0.00,Wunderground v.1.15,2013-03-07 20:29:00,
2013-03-07 14:34:00,67.7,43.8,30.11,ESE,113,13.0,13.0,42,0.00,,,0.00,Wunderground v.1.15,2013-03-07 20:34:00,
2013-03-07 14:39:00,67.6,44.3,30.11,SE,143,14.0,14.0,43,0.00,,,0.00,Wunderground v.1.15,2013-03-07 20:39:00,
2013-03-07 14:44:00,67.8,45.1,30.11,SE,130,13.0,14.0,44,0.00,,,0.00,Wunderground v.1.15,2013-03-07 20:44:00,
2013-03-07 14:54:00,67.9,44.6,30.10,SE,129,15.0,15.0,43,0.00,,,0.00,Wunderground v.1.15,2013-03-07 20:54:00,
2013-03-07 15:04:00,68.0,44.0,30.10,SE,145,16.0,17.0,42,0.00,,,0.00,Wunderground v.1.15,2013-03-07 21:04:00,
2013-03-07 15:09:00,67.6,43.7,30.10,SE,138,16.0,17.0,42,0.00,,,0.00,Wunderground v.1.15,2013-03-07 21:09:00,
2013-03-07 15:14:00,67.5,44.2,30.10,SE,125,16.0,19.0,43,0.00,,,0.00,Wunderground v.1.15,2013-03-07 21:14:00,
2013-03-07 15:24:00,67.9,44.6,30.10,SE,134,15.0,19.0,43,0.00,,,0.00,Wunderground v.1.15,2013-03-07 21:24:00,
2013-03-07 15:29:00,68.3,44.3,30.10,SE,146,15.0,22.0,42,0.00,,,0.00,Wunderground v.1.15,2013-03-07 21:29:00,
2013-03-07 15:38:00,68.8,45.4,30.10,SE,144,18.0,21.0,43,0.00,,,0.00,Wunderground v.1.15,2013-03-07 21:38:00,
2013-03-07 15:43:00,68.5,45.1,30.10,SSE,168,18.0,18.0,43,0.00,,,0.00,Wunderground v.1.15,2013-03-07 21:43:00,
2013-03-07 15:48:00,68.7,44.0,30.09,SE,134,16.0,19.0,41,0.00,,,0.00,Wunderground v.1.15,2013-03-07 21:48:00,
2013-03-07 15:54:00,68.4,44.4,30.09,SE,134,15.0,17.0,42,0.00,,,0.00,Wunderground v.1.15,2013-03-07 21:54:00,
2013-03-07 16:03:00,68.6,44.6,30.09,ESE,108,15.0,17.0,42,0.00,,,0.00,Wunderground v.1.15,2013-03-07 22:03:00,
2013-03-07 16:08:00,68.5,43.9,30.09,ESE,118,15.0,17.0,41,0.00,,,0.00,Wunderground v.1.15,2013-03-07 22:08:00,
2013-03-07 16:13:00,68.6,43.9,30.09,SE,129,15.0,20.0,41,0.00,,,0.00,Wunderground v.1.15,2013-03-07 22:13:00,
2013-03-07 16:19:00,68.6,43.3,30.09,SE,130,15.0,20.0,40,0.00,,,0.00,Wunderground v.1.15,2013-03-07 22:19:00,
2013-03-07 16:24:00,67.8,43.9,30.08,SE,125,15.0,15.0,42,0.00,,,0.00,Wunderground v.1.15,2013-03-07 22:24:00,
2013-03-07 16:33:00,68.3,44.3,30.09,ESE,120,14.0,21.0,42,0.00,,,0.00,Wunderground v.1.15,2013-03-07 22:33:00,
2013-03-07 16:38:00,68.2,43.6,30.09,SE,125,16.0,21.0,41,0.00,,,0.00,Wunderground v.1.15,2013-03-07 22:38:00,
2013-03-07 16:43:00,68.0,44.0,30.08,SE,125,16.0,16.0,42,0.00,,,0.00,Wunderground v.1.15,2013-03-07 22:43:00,
2013-03-07 16:49:00,68.3,44.3,30.09,SE,137,16.0,16.0,42,0.00,,,0.00,Wunderground v.1.15,2013-03-07 22:49:00,
2013-03-07 16:54:00,68.8,44.1,30.09,SE,142,15.0,16.0,41,0.00,,,0.00,Wunderground v.1.15,2013-03-07 22:54:00,
2013-03-07 17:03:00,68.2,44.2,30.09,SE,141,14.0,14.0,42,0.00,,,0.00,Wunderground v.1.15,2013-03-07 23:03:00,
2013-03-07 17:09:00,68.1,44.1,30.09,SE,133,12.0,15.0,42,0.00,,,0.00,Wunderground v.1.15,2013-03-07 23:09:00,
2013-03-07 17:14:00,68.0,44.7,30.09,SE,137,14.0,14.0,43,0.00,,,0.00,Wunderground v.1.15,2013-03-07 23:14:00,
2013-03-07 17:19:00,68.1,44.7,30.09,SE,136,15.0,15.0,43,0.00,,,0.00,Wunderground v.1.15,2013-03-07 23:19:00,
2013-03-07 17:24:00,68.3,45.5,30.09,SE,132,14.0,14.0,44,0.00,,,0.00,Wunderground v.1.15,2013-03-07 23:24:00,
2013-03-07 17:29:00,68.4,45.6,30.09,SE,144,13.0,17.0,44,0.00,,,0.00,Wunderground v.1.15,2013-03-07 23:29:00,
2013-03-07 17:44:00,67.7,45.6,30.09,ESE,109,12.0,12.0,45,0.00,,,0.00,Wunderground v.1.15,2013-03-07 23:44:00,
2013-03-07 17:59:00,67.5,46.0,30.08,ESE,113,12.0,12.0,46,0.00,,,0.00,Wunderground v.1.15,2013-03-07 23:59:00,
2013-03-07 18:04:00,67.4,45.9,30.08,ESE,116,12.0,13.0,46,0.00,,,0.00,Wunderground v.1.15,2013-03-08 00:04:00,
2013-03-07 18:14:00,67.1,46.2,30.09,SE,125,11.0,11.0,47,0.00,,,0.00,Wunderground v.1.15,2013-03-08 00:14:00,
2013-03-07 18:19:00,66.9,46.0,30.09,ESE,118,10.0,11.0,47,0.00,,,0.00,Wunderground v.1.15,2013-03-08 00:19:00,
2013-03-07 18:24:00,66.7,46.4,30.09,SE,125,9.0,12.0,48,0.00,,,0.00,Wunderground v.1.15,2013-03-08 00:24:00,
2013-03-07 18:29:00,66.4,46.1,30.09,ESE,116,9.0,12.0,48,0.00,,,0.00,Wunderground v.1.15,2013-03-08 00:29:00,
2013-03-07 18:34:00,66.3,46.0,30.09,ESE,109,9.0,9.0,48,0.00,,,0.00,Wunderground v.1.15,2013-03-08 00:34:00,
2013-03-07 18:39:00,66.1,46.4,30.09,ESE,117,9.0,9.0,49,0.00,,,0.00,Wunderground v.1.15,2013-03-08 00:39:00,
2013-03-07 18:49:00,65.5,46.9,30.10,SE,127,8.0,9.0,51,0.00,,,0.00,Wunderground v.1.15,2013-03-08 00:49:00,
2013-03-07 18:54:00,65.2,47.1,30.10,ESE,118,8.0,8.0,52,0.00,,,0.00,Wunderground v.1.15,2013-03-08 00:54:00,
2013-03-07 19:08:00,64.3,47.3,30.10,ESE,116,7.0,9.0,54,0.00,,,0.00,Wunderground v.1.15,2013-03-08 01:08:00,
2013-03-07 19:13:00,64.2,47.7,30.10,SE,137,8.0,12.0,55,0.00,,,0.00,Wunderground v.1.15,2013-03-08 01:13:00,
2013-03-07 19:23:00,64.4,48.8,30.10,SE,134,9.0,12.0,57,0.00,,,0.00,Wunderground v.1.15,2013-03-08 01:23:00,
2013-03-07 19:28:00,64.7,49.6,30.10,ESE,123,10.0,12.0,58,0.00,,,0.00,Wunderground v.1.15,2013-03-08 01:28:00,
2013-03-07 19:33:00,64.7,49.6,30.10,SE,130,12.0,14.0,58,0.00,,,0.00,Wunderground v.1.15,2013-03-08 01:33:00,
2013-03-07 19:38:00,64.7,50.0,30.10,SE,136,13.0,14.0,59,0.00,,,0.00,Wunderground v.1.15,2013-03-08 01:38:00,
2013-03-07 19:43:00,64.6,50.4,30.10,SE,128,13.0,13.0,60,0.00,,,0.00,Wunderground v.1.15,2013-03-08 01:43:00,
2013-03-07 19:48:00,64.6,50.4,30.10,SE,138,13.0,15.0,60,0.00,,,0.00,Wunderground v.1.15,2013-03-08 01:48:00,
2013-03-07 19:53:00,64.5,50.3,30.10,SE,146,15.0,18.0,60,0.00,,,0.00,Wunderground v.1.15,2013-03-08 01:53:00,
2013-03-07 19:58:00,64.4,50.7,30.10,SSE,149,15.0,18.0,61,0.00,,,0.00,Wunderground v.1.15,2013-03-08 01:58:00,
2013-03-07 20:03:00,64.3,51.0,30.11,SE,138,17.0,17.0,62,0.00,,,0.00,Wunderground v.1.15,2013-03-08 02:03:00,
2013-03-07 20:08:00,64.1,51.2,30.10,SE,143,17.0,17.0,63,0.00,,,0.00,Wunderground v.1.15,2013-03-08 02:08:00,
2013-03-07 20:13:00,63.9,51.1,30.11,SE,136,17.0,17.0,63,0.00,,,0.00,Wunderground v.1.15,2013-03-08 02:13:00,
2013-03-07 20:18:00,63.8,51.4,30.11,SE,132,17.0,17.0,64,0.00,,,0.00,Wunderground v.1.15,2013-03-08 02:18:00,
2013-03-07 20:28:00,63.3,51.3,30.11,SE,136,16.0,17.0,65,0.00,,,0.00,Wunderground v.1.15,2013-03-08 02:28:00,
2013-03-07 20:33:00,63.0,51.5,30.11,SE,129,17.0,17.0,66,0.00,,,0.00,Wunderground v.1.15,2013-03-08 02:33:00,
2013-03-07 20:38:00,62.8,51.7,30.11,SE,136,15.0,17.0,67,0.00,,,0.00,Wunderground v.1.15,2013-03-08 02:38:00,
2013-03-07 20:43:00,62.6,51.5,30.11,SE,134,13.0,15.0,67,0.00,,,0.00,Wunderground v.1.15,2013-03-08 02:43:00,
2013-03-07 20:48:00,62.4,51.3,30.11,SE,132,12.0,15.0,67,0.00,,,0.00,Wunderground v.1.15,2013-03-08 02:48:00,
2013-03-07 20:58:00,61.8,51.1,30.11,SE,126,8.0,12.0,68,0.00,,,0.00,Wunderground v.1.15,2013-03-08 02:58:00,
2013-03-07 21:03:00,61.8,51.5,30.11,SE,136,9.0,14.0,69,0.00,,,0.00,Wunderground v.1.15,2013-03-08 03:03:00,
2013-03-07 21:08:00,61.9,51.6,30.11,SE,132,12.0,15.0,69,0.00,,,0.00,Wunderground v.1.15,2013-03-08 03:08:00,
2013-03-07 21:19:00,61.8,51.5,30.12,SE,141,10.0,14.0,69,0.00,,,0.00,Wunderground v.1.15,2013-03-08 03:19:00,
2013-03-07 21:24:00,61.7,51.4,30.12,SE,146,10.0,10.0,69,0.00,,,0.00,Wunderground v.1.15,2013-03-08 03:24:00,
2013-03-07 21:34:00,61.7,51.8,30.12,SE,136,10.0,15.0,70,0.00,,,0.00,Wunderground v.1.15,2013-03-08 03:34:00,
2013-03-07 21:39:00,61.8,51.9,30.13,SE,127,12.0,17.0,70,0.00,,,0.00,Wunderground v.1.15,2013-03-08 03:39:00,
2013-03-07 21:44:00,61.9,52.0,30.13,SSE,153,15.0,18.0,70,0.00,,,0.00,Wunderground v.1.15,2013-03-08 03:44:00,
2013-03-07 21:49:00,61.8,51.9,30.12,SE,127,16.0,18.0,70,0.00,,,0.00,Wunderground v.1.15,2013-03-08 03:49:00,
2013-03-07 21:54:00,61.6,51.7,30.12,SE,146,16.0,16.0,70,0.00,,,0.00,Wunderground v.1.15,2013-03-08 03:54:00,
2013-03-07 22:04:00,61.3,51.8,30.12,SSE,151,18.0,19.0,71,0.00,,,0.00,Wunderground v.1.15,2013-03-08 04:04:00,
2013-03-07 22:09:00,61.3,51.8,30.12,SE,146,19.0,25.0,71,0.00,,,0.00,Wunderground v.1.15,2013-03-08 04:09:00,
2013-03-07 22:14:00,61.1,51.6,30.11,SE,125,20.0,20.0,71,0.00,,,0.00,Wunderground v.1.15,2013-03-08 04:14:00,
2013-03-07 22:19:00,60.9,51.8,30.12,SE,127,19.0,20.0,72,0.00,,,0.00,Wunderground v.1.15,2013-03-08 04:19:00,
2013-03-07 22:24:00,60.8,51.7,30.12,SE,141,18.0,18.0,72,0.00,,,0.00,Wunderground v.1.15,2013-03-08 04:24:00,
2013-03-07 22:29:00,60.8,51.7,30.12,SE,144,18.0,18.0,72,0.00,,,0.00,Wunderground v.1.15,2013-03-08 04:29:00,
2013-03-07 22:39:00,60.7,51.6,30.12,SSE,147,18.0,20.0,72,0.00,,,0.00,Wunderground v.1.15,2013-03-08 04:39:00,
2013-03-07 22:44:00,60.6,51.5,30.12,SE,137,19.0,20.0,72,0.00,,,0.00,Wunderground v.1.15,2013-03-08 04:44:00,
2013-03-07 22:49:00,60.4,51.3,30.12,SSE,149,20.0,22.0,72,0.00,,,0.00,Wunderground v.1.15,2013-03-08 04:49:00,
2013-03-07 22:54:00,60.3,51.6,30.12,ESE,122,20.0,20.0,73,0.00,,,0.00,Wunderground v.1.15,2013-03-08 04:54:00,
2013-03-07 22:59:00,60.3,51.6,30.12,SE,126,18.0,20.0,73,0.00,,,0.00,Wunderground v.1.15,2013-03-08 04:59:00,
2013-03-07 23:04:00,60.3,51.6,30.12,SE,137,19.0,22.0,73,0.00,,,0.00,Wunderground v.1.15,2013-03-08 05:04:00,
2013-03-07 23:09:00,60.2,51.5,30.12,SE,130,19.0,22.0,73,0.00,,,0.00,Wunderground v.1.15,2013-03-08 05:09:00,
2013-03-07 23:14:00,60.1,51.4,30.12,SE,137,16.0,16.0,73,0.00,,,0.00,Wunderground v.1.15,2013-03-08 05:14:00,
2013-03-07 23:19:00,59.9,51.2,30.12,SE,132,14.0,16.0,73,0.00,,,0.00,Wunderground v.1.15,2013-03-08 05:19:00,
2013-03-07 23:24:00,59.8,51.1,30.12,SE,142,15.0,15.0,73,0.00,,,0.00,Wunderground v.1.15,2013-03-08 05:24:00,
2013-03-07 23:29:00,59.7,51.0,30.12,SE,142,14.0,15.0,73,0.00,,,0.00,Wunderground v.1.15,2013-03-08 05:29:00,
2013-03-07 23:34:00,59.6,51.3,30.12,SE,124,13.0,16.0,74,0.00,,,0.00,Wunderground v.1.15,2013-03-08 05:34:00,
2013-03-07 23:39:00,59.5,51.2,30.11,SE,130,14.0,17.0,74,0.00,,,0.00,Wunderground v.1.15,2013-03-08 05:39:00,
2013-03-07 23:44:00,59.4,51.1,30.11,East,100,14.0,14.0,74,0.00,,,0.00,Wunderground v.1.15,2013-03-08 05:44:00,
2013-03-07 23:49:00,59.4,51.1,30.11,SE,139,14.0,14.0,74,0.00,,,0.00,Wunderground v.1.15,2013-03-08 05:49:00,
2013-03-07 23:54:00,59.3,51.0,30.11,SE,142,14.0,14.0,74,0.00,,,0.00,Wunderground v.1.15,2013-03-08 05:54:00,